Wind_Speed
30 32 33 32 31 29 28 27 25 23 21 20 18 16 16 13 12 13 15 20 20 19 18 16 13 10 8 7 6 5 4 4 4 5 4 6 7 8 10 11 13 13 12
28 31 32 32 32 31 30 28 27 25 24 22 21 19 15 13 11 11 12 14 19 22 21 21 18 17 14 14 12 11 11 11 11 11 12 11 11 12 13 13 15 16 17
29 32 32 33 32 32 30 29 29 26 26 23 23 20 16 15 14 12 12 13 14 18 24 24 22 23 22 21 19 18 18 19 21 20 18 20 20 19 20 20 19 20 21
29 33 32 32 31 30 29 28 27 25 24 24 23 21 20 18 17 16 14 13 13 15 17 22 25 27 27 26 26 25 25 26 27 28 27 26 28 28 27 26 27 27 27
29 30 30 30 29 28 27 27 26 26 23 21 22 21 20 21 20 19 17 16 15 16 18 19 21 25 28 29 30 30 31 31 32 33 34 33 33 34 34 34 36 34 36
18 20 23 25 25 25 24 23 23 24 24 23 22 21 21 20 18 17 17 17 18 19 19 20 21 23 24 27 30 31 33 35 38 38 38 40 38 39 39 42 42 43 45
18 16 16 17 17 18 19 20 20 18 19 20 19 20 20 19 18 17 15 16 17 19 19 19 20 21 22 24 25 27 30 32 34 36 38 40 39 38 40 44 43 46 46
19 20 20 20 20 20 20 20 20 21 21 21 22 23 23 21 19 17 16 18 19 18 18 18 19 18 20 21 21 24 26 28 30 32 37 37 38 39 43 45 46 46 47
16 18 19 17 16 19 22 25 26 27 26 26 25 26 27 26 25 24 25 25 25 25 25 25 26 26 27 30 32 34 35 36 38 40 43 44 47 48 50 52 53 54 55
19 18 19 16 15 15 12 13 17 25 28 30 31 31 32 32 32 32 33 33 33 33 31 30 30 30 32 34 37 38 38 38 42 42 43 45 47 49 51 54 55 56 57
32 28 23 21 22 20 18 17 18 22 24 26 29 31 34 36 36 37 37 39 39 39 38 36 34 35 35 35 36 37 36 36 38 40 40 41 41 42 43 44 44 45 46
35 35 30 28 27 26 24 24 22 23 24 24 25 25 25 26 27 30 33 37 39 42 41 41 41 40 39 38 38 37 38 37 38 37 36 38 40 43 44 46 50 51 50
38 36 35 33 31 30 29 32 27 31 30 27 27 27 27 27 27 30 33 34 36 39 40 41 41 41 40 39 37 36 31 31 31 34 37 40 47 51 51 56 58 57 59
37 36 36 37 36 35 37 35 32 29 29 29 29 28 27 28 29 30 32 35 35 36 37 37 36 37 36 35 32 28 27 30 33 37 43 48 54 56 55 55 56 58 59
33 36 37 38 39 40 39 37 34 33 32 30 28 29 31 30 30 33 35 36 35 35 36 33 29 26 24 23 24 26 28 31 36 41 48 55 58 57 58 57 59 59 60
35 34 35 37 39 39 38 38 38 37 37 36 38 35 33 33 34 35 36 36 35 34 31 27 23 20 20 24 27 26 29 33 38 43 49 54 51 49 52 57 56 58 52
33 35 35 38 46 47 44 43 42 44 45 42 40 38 35 35 36 38 36 35 34 31 26 24 23 24 26 26 27 29 31 37 39 43 49 49 47 49 50 48 47 42 37
27 28 31 37 39 41 42 42 38 35 36 36 35 36 35 36 33 30 30 30 28 27 25 26 26 26 26 28 29 30 33 37 40 44 46 45 45 44 41 37 33 31 29
25 27 27 28 33 35 35 35 36 35 31 32 33 35 35 32 26 25 25 27 27 26 27 28 27 28 30 31 31 32 35 38 40 43 42 40 42 38 35 31 24 21 23
30 28 23 23 27 29 31 32 34 34 34 30 30 31 29 28 26 24 24 25 26 28 29 29 30 32 33 33 33 33 35 38 39 38 38 37 35 32 30 21 22 21 19
31 30 32 29 23 22 21 22 25 28 32 30 32 32 31 29 29 28 28 28 30 31 32 33 34 34 35 36 35 34 35 37 35 35 33 32 27 23 17 14 17 12 8
36 36 37 36 34 33 28 24 22 22 25 27 29 29 30 31 30 32 31 33 35 35 34 34 35 35 37 36 35 34 34 33 32 31 28 25 21 19 13 10 7 8 5
34 35 41 43 40 40 38 35 37 36 30 29 30 32 34 35 35 37 37 37 38 37 35 35 35 35 36 34 33 31 29 29 31 28 24 22 17 16 14 10 11 8 9
45 44 46 49 51 51 47 42 42 42 35 29 33 37 39 38 37 35 35 35 34 34 34 34 34 34 33 32 30 26 25 28 29 26 25 20 18 18 19 19 18 17 14
58 55 52 56 55 51 44 49 51 44 38 39 29 32 33 33 33 32 33 33 33 33 33 33 31 29 28 27 27 28 29 28 27 26 24 22 22 22 22 22 22 20 19
56 60 56 59 51 54 51 44 31 39 38 38 31 36 36 34 34 33 31 30 29 29 29 28 28 28 28 28 29 30 30 30 30 28 26 24 24 25 24 23 25 23 21
Wind_Direction
217 217 212 212 214 216 216 217 218 218 217 220 224 224 230 225 210 198 200 210 210 210 211 211 212 216 220 230 239 244 260 271 268 279 280 293 305 310 314 316 313 314 316
216 217 215 214 212 215 217 218 221 220 222 219 226 227 225 230 222 206 205 210 216 219 220 224 223 233 232 242 246 253 258 262 269 273 279 284 281 287 294 301 303 307 309
214 215 215 216 215 215 218 219 222 223 225 223 224 226 222 218 224 221 213 214 217 222 225 230 230 236 239 243 247 249 258 266 271 270 270 275 281 284 286 290 296 300 301
214 218 215 217 218 216 215 218 222 227 228 226 226 222 219 218 220 223 227 225 225 229 231 234 237 242 247 250 255 258 258 259 262 267 270 271 275 280 282 286 291 292 290
212 215 215 215 220 223 222 222 224 228 232 228 230 229 228 229 228 229 236 240 241 238 237 237 239 243 247 252 256 261 265 267 270 272 275 277 276 278 284 286 284 286 284
209 213 215 216 219 223 227 230 230 228 232 235 232 231 230 230 235 239 246 249 249 249 247 246 246 246 249 252 255 259 263 268 272 274 278 282 285 286 290 291 288 286 286
212 215 215 207 206 208 214 220 224 223 221 226 226 225 226 233 244 252 255 257 253 251 251 251 249 251 252 252 255 260 263 268 271 276 279 279 286 292 285 283 283 283 282
212 213 218 221 222 224 225 226 225 228 226 223 224 230 237 238 245 249 252 254 252 252 253 256 259 259 262 264 264 264 266 269 272 274 278 286 286 284 283 285 286 282 280
200 209 212 204 212 226 235 239 240 238 236 235 237 240 245 250 254 254 254 253 252 253 255 256 259 263 266 268 269 273 277 279 275 275 278 279 281 281 281 280 280 282 282
210 212 210 214 220 226 230 235 243 242 240 240 241 244 249 254 256 258 260 261 260 262 262 263 265 266 268 271 274 276 281 286 285 285 283 281 280 281 281 279 280 280 284
213 225 222 230 238 242 249 243 236 240 243 243 245 247 250 253 256 258 260 262 265 266 267 266 266 268 272 276 281 286 293 293 291 292 289 290 290 289 286 283 283 289 291
225 236 238 237 242 246 252 251 243 232 234 239 243 247 251 256 258 260 263 265 266 267 267 267 268 270 272 276 281 287 293 294 294 294 295 296 297 295 292 292 293 295 295
227 230 233 237 240 253 252 258 244 238 241 248 255 260 264 266 267 268 266 266 267 268 269 269 268 269 271 274 280 286 288 292 291 293 295 296 296 297 300 299 298 297 296
226 230 233 238 241 241 252 252 254 253 258 263 266 268 268 270 273 276 274 271 272 273 272 271 270 268 269 275 281 282 284 283 286 293 298 299 299 297 295 293 292 293 292
229 232 233 234 236 239 244 250 252 254 258 261 266 268 271 273 276 276 275 274 274 277 274 273 270 267 270 272 274 281 283 287 295 299 301 301 302 304 302 296 294 295 295
239 241 243 246 247 248 250 253 258 262 264 264 273 268 268 272 271 274 277 273 273 273 270 269 263 262 269 277 280 278 283 292 299 303 303 302 304 304 301 302 301 300 299
249 249 252 257 253 252 254 256 260 265 269 268 266 261 263 268 270 272 270 270 271 269 264 257 259 267 274 271 272 280 290 300 303 304 302 305 306 305 306 304 301 304 297
266 265 263 264 264 257 254 254 254 256 260 258 256 255 258 264 270 272 268 268 269 267 263 261 264 265 265 269 276 285 298 305 303 303 305 307 305 308 309 310 312 307 310
261 268 273 275 261 251 247 246 248 254 261 261 257 255 258 261 260 262 266 266 266 266 263 262 261 261 264 271 278 288 301 304 302 303 304 305 306 308 311 315 314 308 312
243 245 253 262 267 261 257 252 251 253 255 257 257 255 251 249 256 261 266 265 263 263 262 259 257 258 264 273 279 288 297 303 300 302 301 302 303 306 306 305 315 318 323
248 250 255 257 256 256 258 264 265 264 264 254 256 253 254 255 258 259 261 264 267 267 265 264 261 264 270 276 279 283 293 298 293 299 299 302 302 306 303 302 311 316 340
254 256 256 255 257 264 263 270 280 278 279 276 271 264 262 261 262 261 264 268 271 274 275 270 266 269 273 276 277 279 284 287 293 289 288 292 297 300 295 299 292 301 315
257 258 260 262 263 271 277 280 285 291 286 276 275 276 268 269 267 266 269 269 269 272 270 266 265 267 269 273 275 278 284 287 284 275 278 281 288 296 283 286 287 258 236
265 268 271 271 271 278 284 289 294 289 293 271 265 268 268 266 265 267 267 266 264 260 259 260 262 265 268 269 271 276 276 276 274 270 274 274 278 279 277 278 274 262 248
263 263 265 269 274 281 285 288 288 285 284 284 262 266 263 262 261 260 256 253 251 250 252 254 256 258 262 267 270 271 272 270 268 269 271 274 276 274 274 271 265 254 243
266 270 268 264 269 275 277 270 262 266 258 261 264 272 259 257 255 249 243 242 244 246 249 251 254 257 260 263 265 266 265 266 267 267 271 274 273 271 265 258 257 249 238
Height
3166 3172 3177 3182 3187 3191 3195 3199 3202 3206 3208 3211 3213 3214 3216 3218 3220 3222 3223 3225 3227 3229 3231 3233 3235 3236 3237 3238 3238 3239 3240 3239 3240 3240 3239 3238 3237 3235 3234 3233 3231 3229 3227
3163 3167 3172 3177 3182 3186 3191 3195 3199 3202 3204 3207 3209 3211 3214 3216 3217 3219 3220 3222 3224 3226 3229 3230 3232 3233 3235 3235 3236 3237 3237 3238 3237 3237 3236 3236 3234 3233 3231 3229 3227 3226 3224
3158 3162 3166 3172 3177 3181 3186 3191 3194 3197 3200 3203 3206 3208 3211 3212 3214 3216 3218 3219 3221 3222 3224 3226 3228 3228 3230 3231 3233 3234 3234 3233 3232 3232 3232 3231 3229 3229 3227 3225 3224 3222 3221
3153 3157 3162 3167 3172 3178 3183 3186 3190 3193 3195 3199 3201 3204 3207 3209 3211 3212 3214 3216 3218 3219 3220 3221 3223 3223 3225 3225 3226 3227 3228 3228 3227 3226 3225 3226 3224 3223 3221 3220 3219 3217 3214
3148 3153 3158 3164 3169 3174 3178 3182 3186 3189 3192 3195 3197 3200 3203 3204 3206 3209 3210 3212 3214 3215 3215 3216 3217 3218 3220 3220 3220 3222 3222 3222 3220 3220 3218 3218 3217 3216 3215 3214 3211 3210 3207
3146 3150 3155 3160 3165 3170 3174 3178 3182 3185 3188 3190 3193 3195 3197 3199 3202 3205 3206 3208 3209 3210 3210 3212 3212 3213 3213 3214 3215 3216 3216 3215 3213 3211 3211 3209 3209 3208 3208 3205 3203 3200 3196
3144 3149 3153 3157 3162 3167 3171 3174 3177 3181 3184 3186 3188 3190 3193 3195 3198 3201 3202 3203 3204 3205 3205 3206 3207 3207 3208 3209 3209 3209 3208 3207 3206 3204 3201 3200 3199 3200 3197 3192 3190 3188 3185
3142 3147 3151 3155 3160 3164 3168 3171 3175 3177 3180 3183 3185 3187 3189 3192 3195 3196 3198 3198 3198 3200 3201 3201 3201 3203 3203 3203 3203 3201 3201 3200 3199 3198 3193 3193 3191 3189 3185 3183 3180 3175 3173
3140 3144 3148 3152 3157 3160 3163 3167 3170 3173 3176 3179 3181 3183 3184 3186 3189 3191 3193 3193 3193 3194 3195 3195 3196 3196 3197 3197 3196 3194 3193 3192 3191 3190 3187 3184 3181 3178 3174 3169 3166 3162 3158
3138 3142 3145 3150 3154 3156 3160 3163 3165 3166 3169 3172 3174 3177 3178 3180 3182 3183 3184 3185 3186 3186 3188 3188 3188 3188 3189 3188 3186 3185 3184 3184 3181 3179 3175 3173 3170 3167 3164 3157 3153 3148 3144
3133 3137 3141 3146 3149 3152 3154 3157 3159 3161 3163 3165 3167 3169 3171 3173 3174 3175 3176 3176 3177 3177 3179 3179 3180 3180 3179 3178 3176 3175 3175 3173 3169 3166 3164 3161 3159 3156 3153 3148 3144 3139 3135
3128 3130 3135 3139 3142 3144 3147 3149 3151 3154 3156 3158 3160 3162 3164 3165 3166 3167 3167 3167 3167 3167 3169 3170 3171 3171 3170 3169 3168 3168 3165 3162 3159 3156 3153 3151 3147 3143 3140 3136 3132 3126 3120
3121 3124 3128 3131 3134 3137 3140 3142 3144 3146 3148 3151 3153 3155 3157 3158 3159 3159 3159 3159 3158 3157 3158 3159 3159 3160 3160 3160 3160 3159 3156 3153 3150 3147 3145 3143 3138 3131 3127 3120 3114 3109 3104
3115 3119 3122 3125 3128 3131 3133 3134 3136 3138 3141 3143 3145 3147 3147 3148 3150 3150 3149 3148 3149 3148 3149 3148 3148 3148 3149 3151 3151 3150 3147 3146 3143 3140 3137 3133 3127 3120 3114 3108 3102 3096 3089
3108 3111 3114 3117 3119 3121 3123 3126 3128 3131 3133 3134 3137 3138 3138 3139 3141 3139 3139 3138 3138 3138 3137 3138 3138 3138 3139 3140 3141 3141 3140 3138 3135 3131 3126 3120 3115 3108 3100 3094 3088 3083 3074
3101 3104 3107 3109 3111 3113 3115 3118 3120 3123 3125 3126 3128 3129 3130 3131 3131 3130 3129 3128 3128 3128 3127 3129 3129 3130 3131 3132 3132 3132 3131 3130 3127 3122 3116 3109 3102 3096 3089 3083 3077 3070 3062
3092 3095 3099 3101 3102 3104 3106 3108 3110 3113 3114 3115 3117 3118 3121 3122 3121 3120 3119 3119 3119 3119 3120 3121 3122 3122 3123 3123 3124 3124 3123 3121 3117 3112 3106 3099 3092 3086 3080 3072 3065 3060 3054
3083 3086 3088 3089 3090 3092 3094 3097 3100 3102 3103 3104 3105 3108 3110 3111 3111 3111 3110 3110 3111 3111 3112 3113 3113 3113 3114 3114 3115 3115 3114 3110 3106 3101 3095 3088 3082 3075 3069 3062 3056 3051 3046
3076 3077 3078 3079 3080 3081 3084 3088 3090 3092 3093 3094 3095 3097 3099 3101 3103 3103 3102 3102 3103 3103 3104 3104 3104 3105 3105 3106 3106 3105 3103 3100 3095 3091 3085 3079 3073 3068 3061 3056 3052 3049 3044
3068 3070 3072 3073 3074 3075 3077 3080 3082 3083 3084 3085 3087 3088 3090 3092 3093 3094 3094 3095 3095 3095 3095 3096 3097 3097 3097 3097 3096 3095 3093 3089 3086 3081 3077 3071 3067 3063 3057 3053 3050 3046 3042
3059 3061 3065 3067 3069 3071 3072 3073 3074 3075 3076 3076 3077 3078 3081 3083 3084 3084 3085 3086 3086 3086 3087 3088 3088 3088 3088 3087 3086 3085 3082 3079 3076 3072 3069 3065 3062 3058 3052 3050 3048 3045 3043
3052 3053 3054 3057 3059 3062 3064 3065 3067 3068 3068 3068 3069 3070 3072 3073 3074 3075 3076 3077 3077 3078 3079 3079 3078 3078 3077 3077 3076 3074 3072 3069 3066 3064 3062 3059 3056 3053 3049 3047 3047 3045 3043
3040 3041 3043 3046 3048 3050 3052 3053 3055 3057 3059 3060 3061 3062 3062 3063 3063 3064 3065 3066 3066 3067 3067 3067 3067 3067 3067 3067 3066 3065 3063 3061 3060 3057 3055 3053 3050 3048 3047 3047 3046 3045 3043
3027 3028 3030 3033 3035 3036 3038 3041 3043 3046 3048 3049 3050 3051 3052 3052 3052 3053 3054 3054 3055 3055 3056 3056 3057 3057 3057 3057 3056 3054 3053 3053 3052 3050 3049 3047 3046 3045 3044 3043 3042 3042 3041
3013 3016 3017 3019 3022 3024 3026 3028 3031 3034 3036 3037 3037 3039 3040 3041 3041 3042 3043 3044 3045 3046 3047 3047 3047 3047 3046 3046 3045 3045 3045 3044 3043 3042 3042 3041 3040 3040 3040 3039 3038 3036 3035
2995 2998 3003 3008 3013 3014 3015 3017 3020 3021 3025 3026 3027 3028 3031 3031 3032 3033 3035 3035 3036 3037 3037 3036 3036 3036 3036 3036 3035 3035 3035 3034 3035 3034 3035 3034 3034 3033 3033 3033 3032 3031 3031